DW8052 Weather Reports


time (UTC)temp
C
wind
direction
speed
KPH
gust
KPH
rain 1hr
cm
rain 24hr
cm
rain mn
cm
humidity
%
barometer
mb
20260508022207 18 258 20.9 38.6 0.00 0.00 0.00 39 1016.1
20260508021707 18 262 24.1 41.8 0.00 0.00 0.00 38 1016.1
20260508021208 18 248 32.2 41.8 0.00 0.00 0.00 38 1016.4
20260508020208 18 273 29.0 41.8 0.00 0.00 0.00 39 1016.6
20260508015707 18 273 29.0 41.8 0.00 0.00 0.00 39 1016.4
20260508015207 18 252 25.7 41.8 0.00 0.00 0.00 40 1016.6
20260508014707 18 269 25.7 37.0 0.00 0.00 0.00 40 1016.8
20260508014208 18 264 27.4 37.0 0.00 0.00 0.00 40 1016.6
20260508013707 18 258 33.8 46.7 0.00 0.00 0.00 40 1016.6
20260508013207 18 266 25.7 37.0 0.00 0.00 0.00 41 1016.8
20260508012708 17 277 25.7 41.8 0.00 0.00 0.00 41 1016.8
20260508012207 17 265 38.6 46.7 0.00 0.00 0.00 40 1016.9
20260508010708 17 263 20.9 35.4 0.00 0.00 0.00 42 1017.2
20260508010208 17 264 33.8 45.1 0.00 0.00 0.00 41 1017.1
20260508005707 17 249 27.4 46.7 0.00 0.00 0.00 42 1017.1
20260508005207 17 261 38.6 45.1 0.00 0.00 0.00 42 1017.2
20260508004207 16 273 35.4 49.9 0.00 0.00 0.00 43 1017.5
20260508003708 16 283 35.4 53.1 0.00 0.00 0.00 43 1017.4
20260508003207 16 272 35.4 48.3 0.00 0.00 0.00 44 1017.4
20260508002707 16 269 33.8 49.9 0.00 0.00 0.00 45 1017.5
20260508002207 16 278 20.9 38.6 0.00 0.00 0.00 46 1017.5
20260508001708 16 271 32.2 41.8 0.00 0.00 0.00 45 1017.4
20260508000707 16 271 32.2 41.8 0.00 0.00 0.00 47 1017.8
20260508000207 15 275 33.8 46.7 0.00 0.00 0.00 47 1017.7
20260507235708 15 283 27.4 37.0 0.00 0.00 0.00 47 1017.7
20260507235207 15 276 22.5 32.2 0.00 0.00 0.00 48 1017.7
20260507233207 14 273 33.8 41.8 0.00 0.00 0.00 50 1017.8
20260507232707 14 279 27.4 40.2 0.00 0.00 0.00 50 1017.9
20260507232207 14 275 35.4 46.7 0.00 0.00 0.00 49 1017.8
20260507231707 14 271 29.0 46.7 0.00 0.00 0.00 50 1017.8
20260507231207 14 281 24.1 41.8 0.00 0.00 0.00 51 1017.9
20260507230707 13 279 25.7 49.9 0.00 0.00 0.00 51 1017.8
20260507230207 13 271 38.6 48.3 0.00 0.00 0.00 51 1017.8
20260507225707 13 270 33.8 48.3 0.00 0.00 0.00 51 1017.9
20260507225208 13 268 30.6 46.7 0.00 0.00 0.00 52 1017.7
20260507224207 13 282 35.4 49.9 0.00 0.00 0.00 53 1017.6
20260507223707 12 279 29.0 46.7 0.00 0.00 0.00 53 1017.7
20260507222708 12 287 32.2 41.8 0.00 0.00 0.00 54 1017.9
20260507222208 12 276 29.0 41.8 0.00 0.00 0.00 55 1017.9
20260507221707 12 281 25.7 40.2 0.00 0.00 0.00 55 1017.7
20260507221207 12 282 27.4 40.2 0.00 0.00 0.00 55 1017.6
20260507220207 11 282 25.7 33.8 0.00 0.00 0.00 55 1017.7
20260507215707 11 273 29.0 41.8 0.00 0.00 0.00 56 1017.6
20260507214707 11 285 27.4 38.6 0.00 0.00 0.00 56 1017.7
20260507213708 11 276 29.0 38.6 0.00 0.00 0.00 56 1017.6
20260507213207 11 279 27.4 37.0 0.00 0.00 0.00 56 1017.5
20260507212707 11 281 25.7 37.0 0.00 0.00 0.00 56 1017.5
20260507211707 11 285 32.2 41.8 0.00 0.00 0.00 56 1017.2
20260507211207 11 275 38.6 48.3 0.00 0.00 0.00 56 1017.3
20260507210707 11 282 32.2 41.8 0.00 0.00 0.00 57 1017.1
20260507205707 10 273 30.6 38.6 0.00 0.00 0.00 58 1017.4
20260507205207 10 279 32.2 38.6 0.00 0.00 0.00 58 1017.3
20260507204707 10 281 33.8 41.8 0.00 0.00 0.00 59 1017.2
20260507204207 10 280 25.7 38.6 0.00 0.00 0.00 58 1017.2
20260507203707 10 281 25.7 35.4 0.00 0.00 0.00 58 1017.3
20260507203207 10 284 29.0 35.4 0.00 0.00 0.00 57 1017.4
20260507202706 10 282 29.0 37.0 0.00 0.00 0.00 58 1017.5
20260507202207 10 283 27.4 37.0 0.00 0.00 0.00 57 1017.4
20260507201207 10 282 22.5 35.4 0.00 0.00 0.00 58 1017.5
20260507200707 10 281 24.1 33.8 0.00 0.00 0.00 57 1017.4
20260507200207 10 279 25.7 37.0 0.00 0.00 0.00 58 1017.2
20260507195707 10 279 25.7 37.0 0.00 0.00 0.00 57 1017.3
20260507195207 10 278 27.4 40.2 0.00 0.00 0.00 57 1017.3
20260507194707 10 277 29.0 40.2 0.00 0.00 0.00 57 1017.3
20260507194207 10 278 24.1 35.4 0.00 0.00 0.00 57 1017.4
20260507193707 10 272 27.4 38.6 0.00 0.00 0.00 56 1017.3
20260507193207 10 275 25.7 37.0 0.00 0.00 0.00 56 1017.3
20260507192707 10 275 25.7 37.0 0.00 0.00 0.00 56 1017.3
20260507192207 10 275 24.1 37.0 0.00 0.00 0.00 56 1017.3
20260507191207 10 275 29.0 38.6 0.00 0.00 0.00 55 1017.2
20260507190707 10 273 25.7 38.6 0.00 0.00 0.00 55 1017.1
20260507190207 10 265 27.4 37.0 0.00 0.00 0.00 56 1017.2
20260507185707 10 276 25.7 33.8 0.00 0.00 0.00 55 1017.3
20260507185206 10 281 20.9 29.0 0.00 0.00 0.00 55 1017.4
20260507184707 10 284 22.5 37.0 0.00 0.00 0.00 55 1017.4
20260507184207 10 273 22.5 32.2 0.00 0.00 0.00 55 1017.3
20260507183707 10 271 25.7 35.4 0.00 0.00 0.00 55 1017.3
20260507183206 10 275 27.4 38.6 0.00 0.00 0.00 55 1017.6
20260507182707 10 270 20.9 33.8 0.00 0.00 0.00 55 1017.6
20260507182207 11 273 29.0 41.8 0.00 0.00 0.00 54 1017.4
20260507181707 11 282 22.5 32.2 0.00 0.00 0.00 55 1017.4
20260507181206 11 267 22.5 33.8 0.00 0.00 0.00 55 1017.3
20260507180709 10 272 20.9 40.2 0.00 0.00 0.00 55 1017.2
20260507180207 10 267 27.4 40.2 0.00 0.00 0.00 55 1017.2
20260507175707 10 270 25.7 38.6 0.00 0.00 0.00 55 1017.2
20260507175206 10 262 25.7 35.4 0.00 0.00 0.00 56 1017.2
20260507174207 10 258 27.4 41.8 0.00 0.00 0.00 56 1017.3
20260507173207 10 259 27.4 41.8 0.00 0.00 0.00 55 1017.4
20260507172706 10 261 25.7 37.0 0.00 0.00 0.00 56 1017.6
20260507172206 10 264 22.5 35.4 0.00 0.00 0.00 56 1017.6
20260507171706 10 273 22.5 35.4 0.00 0.00 0.00 56 1017.6
20260507171206 10 261 25.7 38.6 0.00 0.00 0.00 55 1017.8
20260507170706 10 271 29.0 38.6 0.00 0.00 0.00 55 1017.6
20260507170207 10 272 25.7 35.4 0.00 0.00 0.00 55 1017.7
20260507165706 10 275 29.0 41.8 0.00 0.00 0.00 54 1017.7
20260507165206 10 275 22.5 32.2 0.00 0.00 0.00 54 1017.9
20260507164206 10 269 25.7 32.2 0.00 0.00 0.00 54 1017.9
20260507163206 10 273 29.0 41.8 0.00 0.00 0.00 54 1017.9
20260507162706 10 270 27.4 41.8 0.00 0.00 0.00 54 1018.0
20260507162206 10 271 33.8 45.1 0.00 0.00 0.00 53 1018.0
20260507161706 10 267 25.7 40.2 0.00 0.00 0.00 54 1017.9
20260507161206 10 266 29.0 41.8 0.00 0.00 0.00 54 1018.0
20260507160706 10 272 30.6 41.8 0.00 0.00 0.00 53 1018.1
20260507155707 10 277 35.4 49.9 0.00 0.00 0.00 52 1018.2
20260507155206 10 267 33.8 41.8 0.00 0.00 0.00 52 1018.3
20260507154706 10 276 29.0 41.8 0.00 0.00 0.00 52 1018.3
20260507154206 10 269 30.6 46.7 0.00 0.00 0.00 52 1018.5
20260507153707 10 269 30.6 40.2 0.00 0.00 0.00 51 1018.5
20260507153206 10 269 30.6 48.3 0.00 0.00 0.00 52 1018.5
20260507152706 10 270 25.7 37.0 0.00 0.00 0.00 51 1018.6
20260507151707 10 269 25.7 40.2 0.00 0.00 0.00 51 1018.6
20260507151206 10 262 30.6 40.2 0.00 0.00 0.00 51 1018.8
20260507150706 10 273 20.9 32.2 0.00 0.00 0.00 50 1018.9
20260507150206 10 271 25.7 37.0 0.00 0.00 0.00 50 1018.8
20260507145706 10 278 20.9 33.8 0.00 0.00 0.00 50 1018.8
20260507145207 10 278 25.7 48.3 0.00 0.00 0.00 49 1018.9
20260507144706 10 261 29.0 45.1 0.00 0.00 0.00 49 1019.1
20260507144206 10 271 27.4 45.1 0.00 0.00 0.00 49 1019.1
20260507143707 10 266 29.0 41.8 0.00 0.00 0.00 49 1019.1
20260507143206 10 270 37.0 49.9 0.00 0.00 0.00 48 1019.0
20260507142706 10 257 33.8 51.5 0.00 0.00 0.00 48 1019.1
20260507142206 11 271 30.6 49.9 0.00 0.00 0.00 48 1018.9
20260507141707 11 262 32.2 49.9 0.00 0.00 0.00 48 1018.9
20260507140706 11 266 27.4 40.2 0.00 0.00 0.00 48 1018.9
20260507140206 11 258 29.0 40.2 0.00 0.00 0.00 47 1019.0
20260507135706 11 260 33.8 46.7 0.00 0.00 0.00 47 1018.8
20260507134706 11 256 40.2 51.5 0.00 0.00 0.00 47 1018.7
20260507134206 11 265 37.0 49.9 0.00 0.00 0.00 47 1018.7
20260507133706 11 268 33.8 48.3 0.00 0.00 0.00 47 1018.9
20260507133206 11 265 38.6 49.9 0.00 0.00 0.00 47 1018.8
20260507132706 11 262 38.6 53.1 0.00 0.00 0.00 47 1018.8
20260507132206 11 246 29.0 45.1 0.00 0.00 0.00 48 1018.7
20260507131206 11 258 32.2 45.1 0.00 0.00 0.00 47 1018.8
20260507130706 11 253 33.8 46.7 0.00 0.00 0.00 47 1018.8
20260507130206 11 256 41.8 56.3 0.00 0.00 0.00 46 1018.6
20260507125706 11 258 32.2 48.3 0.00 0.00 0.00 48 1018.8
20260507125206 11 259 29.0 48.3 0.00 0.00 0.00 47 1018.7
20260507124706 11 260 38.6 51.5 0.00 0.00 0.00 46 1018.7
20260507124206 11 263 27.4 40.2 0.00 0.00 0.00 46 1018.6
20260507123706 11 266 25.7 41.8 0.00 0.00 0.00 46 1018.7
20260507123206 11 257 32.2 49.9 0.00 0.00 0.00 46 1019.0
20260507122707 11 271 29.0 40.2 0.00 0.00 0.00 46 1019.0
20260507122206 11 269 33.8 48.3 0.00 0.00 0.00 45 1019.0
20260507121706 11 273 20.9 35.4 0.00 0.00 0.00 46 1019.2
20260507121206 11 269 29.0 45.1 0.00 0.00 0.00 45 1018.8
20260507120206 11 273 29.0 51.5 0.00 0.00 0.00 45 1018.9
20260507115706 11 268 37.0 48.3 0.00 0.00 0.00 44 1019.0
20260507115206 11 267 27.4 37.0 0.00 0.00 0.00 44 1019.1
20260507114706 11 274 27.4 41.8 0.00 0.00 0.00 44 1019.2
20260507114206 11 274 25.7 41.8 0.00 0.00 0.00 44 1019.1
20260507113706 11 273 29.0 46.7 0.00 0.00 0.00 44 1019.1
20260507113207 11 274 29.0 46.7 0.00 0.00 0.00 44 1019.1
20260507112206 11 277 29.0 40.2 0.00 0.00 0.00 44 1018.8
20260507111706 11 278 25.7 38.6 0.00 0.00 0.00 43 1018.8
20260507111206 11 273 22.5 33.8 0.00 0.00 0.00 43 1018.6
20260507110706 11 275 25.7 41.8 0.00 0.00 0.00 43 1018.6
20260507110206 11 280 25.7 46.7 0.00 0.00 0.00 43 1018.5
20260507105706 11 268 33.8 49.9 0.00 0.00 0.00 42 1018.7
20260507105206 11 264 41.8 59.5 0.00 0.00 0.00 42 1018.5
20260507104705 11 266 32.2 49.9 0.00 0.00 0.00 42 1018.5
20260507104206 11 265 37.0 49.9 0.00 0.00 0.00 42 1018.3
20260507103706 11 269 32.2 46.7 0.00 0.00 0.00 42 1018.3
20260507103206 12 268 22.5 45.1 0.00 0.00 0.00 43 1018.4
20260507102706 12 264 27.4 53.1 0.00 0.00 0.00 42 1018.2
20260507102206 12 264 35.4 49.9 0.00 0.00 0.00 41 1018.1
20260507101706 12 261 33.8 48.3 0.00 0.00 0.00 41 1018.2
20260507101206 12 269 37.0 56.3 0.00 0.00 0.00 41 1018.2
20260507100706 12 251 35.4 62.8 0.00 0.00 0.00 40 1018.0
20260507100206 12 246 35.4 53.1 0.00 0.00 0.00 40 1018.1
20260507095206 12 257 24.1 45.1 0.00 0.00 0.00 40 1018.1
20260507094706 12 268 33.8 51.5 0.00 0.00 0.00 40 1018.0
20260507094206 12 264 35.4 57.9 0.00 0.00 0.00 39 1017.9
20260507092205 12 264 33.8 48.3 0.00 0.00 0.00 39 1017.8
20260507091705 12 269 29.0 41.8 0.00 0.00 0.00 39 1017.6
20260507091206 12 265 32.2 51.5 0.00 0.00 0.00 39 1017.6
20260507090205 12 266 27.4 40.2 0.00 0.00 0.00 39 1017.5
20260507085705 12 276 30.6 40.2 0.00 0.00 0.00 38 1017.7
20260507085205 12 263 37.0 53.1 0.00 0.00 0.00 38 1017.3
20260507084706 12 275 25.7 40.2 0.00 0.00 0.00 39 1017.4
20260507084206 12 272 29.0 41.8 0.00 0.00 0.00 38 1017.4
20260507083706 12 269 32.2 48.3 0.00 0.00 0.00 38 1017.1
20260507083206 12 273 29.0 46.7 0.00 0.00 0.00 37 1017.1
20260507082706 12 272 25.7 46.7 0.00 0.00 0.00 37 1017.0
20260507081706 12 272 33.8 48.3 0.00 0.00 0.00 36 1016.9
20260507081205 12 269 27.4 40.2 0.00 0.00 0.00 37 1016.7
20260507080706 12 258 29.0 41.8 0.00 0.00 0.00 37 1016.6
20260507080205 13 261 33.8 48.3 0.00 0.00 0.00 36 1016.5
20260507075706 13 265 29.0 48.3 0.00 0.00 0.00 37 1016.4
20260507075206 13 258 27.4 41.8 0.00 0.00 0.00 37 1016.4
20260507074706 13 263 32.2 45.1 0.00 0.00 0.00 37 1016.3
20260507074206 13 269 32.2 41.8 0.00 0.00 0.00 36 1016.1
20260507073705 13 270 27.4 51.5 0.00 0.00 0.00 37 1015.9
20260507073206 13 275 25.7 41.8 0.00 0.00 0.00 37 1015.8
20260507072705 13 267 30.6 41.8 0.00 0.00 0.00 36 1015.8
20260507072206 13 274 27.4 41.8 0.00 0.00 0.00 36 1015.8
20260507071706 13 272 25.7 40.2 0.00 0.00 0.00 35 1015.5
20260507071205 13 267 29.0 41.8 0.00 0.00 0.00 35 1015.7
20260507070705 13 266 22.5 33.8 0.00 0.00 0.00 35 1015.6
20260507070205 13 269 29.0 45.1 0.00 0.00 0.00 34 1015.8
20260507065705 13 274 30.6 45.1 0.00 0.00 0.00 34 1015.5
20260507065206 13 265 35.4 56.3 0.00 0.00 0.00 33 1015.7
20260507064706 14 271 33.8 49.9 0.00 0.00 0.00 33 1015.4
20260507063705 14 273 35.4 45.1 0.00 0.00 0.00 33 1015.2
20260507063205 14 263 33.8 56.3 0.00 0.00 0.00 33 1015.4
20260507062706 14 249 27.4 41.8 0.00 0.00 0.00 33 1015.2
20260507062205 14 261 33.8 48.3 0.00 0.00 0.00 33 1015.2
20260507061706 15 250 40.2 53.1 0.00 0.00 0.00 32 1015.2
20260507061205 15 260 35.4 51.5 0.00 0.00 0.00 32 1015.2
20260507060706 15 261 33.8 62.8 0.00 0.00 0.00 32 1015.3
20260507060205 15 251 32.2 53.1 0.00 0.00 0.00 32 1014.9
20260507054705 15 255 43.5 56.3 0.00 0.00 0.00 29 1014.8
20260507054206 15 262 33.8 51.5 0.00 0.00 0.00 30 1014.8
20260507053706 15 267 33.8 61.2 0.00 0.00 0.00 30 1014.7
20260507053206 15 243 41.8 56.3 0.00 0.00 0.00 29 1014.7
20260507052706 15 256 48.3 61.2 0.00 0.00 0.00 29 1014.7
20260507051705 15 261 40.2 56.3 0.00 0.00 0.00 29 1014.5
20260507051205 15 256 40.2 62.8 0.00 0.00 0.00 29 1014.5
20260507050705 15 245 35.4 59.5 0.00 0.00 0.00 28 1014.4
20260507050206 15 250 40.2 59.5 0.00 0.00 0.00 28 1014.4
20260507045706 15 247 51.5 69.2 0.00 0.00 0.00 27 1014.4
20260507045206 15 252 41.8 57.9 0.00 0.00 0.00 28 1014.3
20260507044705 15 249 40.2 57.9 0.00 0.00 0.00 28 1014.3
20260507044205 15 249 40.2 56.3 0.00 0.00 0.00 27 1014.3
20260507043706 15 255 45.1 61.2 0.00 0.00 0.00 27 1014.2
20260507043205 15 254 37.0 56.3 0.00 0.00 0.00 27 1014.3
20260507042705 15 243 41.8 57.9 0.00 0.00 0.00 27 1014.2
20260507042206 15 246 48.3 64.4 0.00 0.00 0.00 27 1014.2
20260507041706 15 242 56.3 69.2 0.00 0.00 0.00 26 1014.2
20260507041205 16 242 48.3 61.2 0.00 0.00 0.00 27 1014.3
20260507040705 16 239 45.1 57.9 0.00 0.00 0.00 27 1014.1
20260507040205 16 244 51.5 64.4 0.00 0.00 0.00 27 1014.0
20260507035706 16 242 51.5 64.4 0.00 0.00 0.00 27 1013.9
20260507034705 16 241 51.5 70.8 0.00 0.00 0.00 27 1013.8
20260507033705 16 266 38.6 53.1 0.00 0.00 0.00 27 1013.5
20260507033206 16 262 41.8 56.3 0.00 0.00 0.00 26 1013.4
20260507032705 16 263 43.5 56.3 0.00 0.00 0.00 25 1013.5
20260507032205 16 269 35.4 49.9 0.00 0.00 0.00 25 1013.5
20260507031705 16 265 37.0 56.3 0.00 0.00 0.00 24 1013.4
20260507030705 16 265 29.0 56.3 0.00 0.00 0.00 25 1013.4
20260507025705 16 270 33.8 56.3 0.00 0.00 0.00 24 1013.6
20260507025206 16 255 35.4 56.3 0.00 0.00 0.00 23 1013.6
20260507024705 16 263 49.9 66.0 0.00 0.00 0.00 22 1013.5
20260507023705 16 264 49.9 62.8 0.00 0.00 0.00 22 1013.8
20260507023206 16 269 38.6 51.5 0.00 0.00 0.00 23 1013.6